Time,TemperatureF,DewpointF,PressureIn,WindDirection,WindDirectionDegrees,WindSpeedMPH,WindSpeedGustMPH,Humidity,HourlyPrecipIn,Conditions,Clouds,dailyrainin,SoftwareType,DateUTC
2013-03-05 00:11:00,30.0,27.0,30.02,SSW,200,5.0,-999.0,86,-99.99,,,-99.99,,2013-03-05 08:11:00,
2013-03-05 00:21:00,30.0,27.0,30.02,SSW,200,5.0,-999.0,86,-99.99,,,-99.99,,2013-03-05 08:21:00,
2013-03-05 00:31:00,30.0,27.0,30.02,SSW,200,5.0,-999.0,86,-99.99,,,-99.99,,2013-03-05 08:31:00,
2013-03-05 00:41:00,30.0,27.0,30.01,SSW,200,5.0,-999.0,86,-99.99,,,-99.99,,2013-03-05 08:41:00,
2013-03-05 00:52:00,30.0,27.0,30.01,SSW,200,5.0,-999.0,86,-99.99,,,-99.99,,2013-03-05 08:52:00,
2013-03-05 01:11:00,30.0,27.0,30.01,SSW,210,3.0,-999.0,86,-99.99,,,-99.99,,2013-03-05 09:11:00,
2013-03-05 01:21:00,30.0,27.0,30.01,SSW,210,3.0,-999.0,86,-99.99,,,-99.99,,2013-03-05 09:21:00,
2013-03-05 01:31:00,30.0,27.0,30.01,SSW,210,3.0,-999.0,86,-99.99,,,-99.99,,2013-03-05 09:31:00,
2013-03-05 01:42:00,30.0,25.0,30.01,South,180,5.0,-999.0,80,-99.99,,,-99.99,,2013-03-05 09:42:00,
2013-03-05 01:52:00,30.0,25.0,30.01,South,180,5.0,-999.0,80,-99.99,,,-99.99,,2013-03-05 09:52:00,
2013-03-05 02:11:00,30.0,25.0,30.00,North,0,0.0,-999.0,80,-99.99,,,-99.99,,2013-03-05 10:11:00,
2013-03-05 02:21:00,30.0,25.0,30.00,North,0,0.0,-999.0,80,-99.99,,,-99.99,,2013-03-05 10:21:00,
2013-03-05 02:32:00,30.0,25.0,30.00,North,0,0.0,-999.0,80,-99.99,,,-99.99,,2013-03-05 10:32:00,
2013-03-05 02:42:00,32.0,27.0,30.00,North,0,0.0,-999.0,80,-99.99,,,-99.99,,2013-03-05 10:42:00,
2013-03-05 02:51:00,32.0,27.0,30.00,North,0,0.0,-999.0,80,-99.99,,,-99.99,,2013-03-05 10:51:00,
2013-03-05 03:11:00,30.0,27.0,29.98,North,0,0.0,-999.0,86,-99.99,,,-99.99,,2013-03-05 11:11:00,
2013-03-05 03:22:00,30.0,27.0,29.98,North,0,0.0,-999.0,86,-99.99,,,-99.99,,2013-03-05 11:22:00,
2013-03-05 03:32:00,30.0,27.0,29.98,North,0,0.0,-999.0,86,-99.99,,,-99.99,,2013-03-05 11:32:00,
2013-03-05 03:42:00,30.0,27.0,29.97,North,0,0.0,-999.0,86,-99.99,,,-99.99,,2013-03-05 11:42:00,
2013-03-05 03:52:00,30.0,27.0,29.97,North,0,0.0,-999.0,86,-99.99,,,-99.99,,2013-03-05 11:52:00,
2013-03-05 04:11:00,30.0,27.0,29.97,North,0,0.0,-999.0,86,-99.99,,,-99.99,,2013-03-05 12:11:00,
2013-03-05 04:22:00,30.0,27.0,29.97,North,0,0.0,-999.0,86,-99.99,,,-99.99,,2013-03-05 12:22:00,
2013-03-05 04:32:00,30.0,27.0,29.97,North,0,0.0,-999.0,86,-99.99,,,-99.99,,2013-03-05 12:32:00,
2013-03-05 04:42:00,32.0,27.0,29.97,SW,220,5.0,-999.0,80,-99.99,,,-99.99,,2013-03-05 12:42:00,
2013-03-05 04:52:00,32.0,27.0,29.97,SW,220,5.0,-999.0,80,-99.99,,,-99.99,,2013-03-05 12:52:00,
2013-03-05 05:11:00,32.0,28.0,29.96,North,0,0.0,-999.0,86,-99.99,,,-99.99,,2013-03-05 13:11:00,
2013-03-05 05:21:00,32.0,28.0,29.96,North,0,0.0,-999.0,86,-99.99,,,-99.99,,2013-03-05 13:21:00,
2013-03-05 05:32:00,32.0,28.0,29.96,North,0,0.0,-999.0,86,-99.99,,,-99.99,,2013-03-05 13:32:00,
2013-03-05 05:42:00,32.0,28.0,29.96,North,0,0.0,-999.0,86,-99.99,,,-99.99,,2013-03-05 13:42:00,
2013-03-05 05:52:00,32.0,28.0,29.96,North,0,0.0,-999.0,86,-99.99,,,-99.99,,2013-03-05 13:52:00,
2013-03-05 06:11:00,30.0,27.0,29.94,North,0,0.0,-999.0,86,-99.99,,,-99.99,,2013-03-05 14:11:00,
2013-03-05 06:21:00,30.0,27.0,29.94,North,0,0.0,-999.0,86,-99.99,,,-99.99,,2013-03-05 14:21:00,
2013-03-05 06:31:00,30.0,27.0,29.94,North,0,0.0,-999.0,86,-99.99,,,-99.99,,2013-03-05 14:31:00,
2013-03-05 06:42:00,30.0,27.0,29.94,North,0,0.0,-999.0,86,-99.99,,,-99.99,,2013-03-05 14:42:00,
2013-03-05 06:52:00,30.0,27.0,29.94,North,0,0.0,-999.0,86,-99.99,,,-99.99,,2013-03-05 14:52:00,
2013-03-05 07:11:00,32.0,27.0,29.93,North,0,0.0,-999.0,80,-99.99,,,-99.99,,2013-03-05 15:11:00,
2013-03-05 07:21:00,32.0,27.0,29.93,North,0,0.0,-999.0,80,-99.99,,,-99.99,,2013-03-05 15:21:00,
2013-03-05 07:32:00,32.0,27.0,29.93,North,0,0.0,-999.0,80,-99.99,,,-99.99,,2013-03-05 15:32:00,
2013-03-05 07:42:00,32.0,28.0,29.93,North,0,0.0,-999.0,86,-99.99,,,-99.99,,2013-03-05 15:42:00,
2013-03-05 07:51:00,32.0,28.0,29.93,North,0,0.0,-999.0,86,-99.99,,,-99.99,,2013-03-05 15:51:00,
2013-03-05 08:11:00,32.0,28.0,29.93,North,0,0.0,-999.0,86,-99.99,,,-99.99,,2013-03-05 16:11:00,
2013-03-05 08:21:00,32.0,28.0,29.93,North,0,0.0,-999.0,86,-99.99,,,-99.99,,2013-03-05 16:21:00,
2013-03-05 08:32:00,32.0,28.0,29.93,North,0,0.0,-999.0,86,-99.99,,,-99.99,,2013-03-05 16:32:00,
2013-03-05 08:42:00,32.0,28.0,29.93,North,0,0.0,-999.0,86,-99.99,,,-99.99,,2013-03-05 16:42:00,
2013-03-05 08:51:00,32.0,28.0,29.93,North,0,0.0,-999.0,86,-99.99,,,-99.99,,2013-03-05 16:51:00,
2013-03-05 09:11:00,34.0,28.0,29.93,North,0,0.0,-999.0,80,-99.99,,,-99.99,,2013-03-05 17:11:00,
2013-03-05 09:21:00,34.0,28.0,29.93,North,0,0.0,-999.0,80,-99.99,,,-99.99,,2013-03-05 17:21:00,
2013-03-05 09:32:00,34.0,28.0,29.93,North,0,0.0,-999.0,80,-99.99,,,-99.99,,2013-03-05 17:32:00,
2013-03-05 09:41:00,34.0,28.0,29.93,SW,220,3.0,-999.0,80,-99.99,,,-99.99,,2013-03-05 17:41:00,
2013-03-05 09:52:00,34.0,28.0,29.93,SW,220,3.0,-999.0,80,-99.99,,,-99.99,,2013-03-05 17:52:00,
2013-03-05 10:11:00,34.0,30.0,29.94,North,0,0.0,-999.0,86,-99.99,,,-99.99,,2013-03-05 18:11:00,
2013-03-05 10:21:00,34.0,30.0,29.94,North,0,0.0,-999.0,86,-99.99,,,-99.99,,2013-03-05 18:21:00,
2013-03-05 10:32:00,34.0,30.0,29.94,North,0,0.0,-999.0,86,-99.99,,,-99.99,,2013-03-05 18:32:00,
2013-03-05 10:42:00,34.0,30.0,29.95,North,0,0.0,-999.0,86,-99.99,,,-99.99,,2013-03-05 18:42:00,
2013-03-05 10:52:00,34.0,30.0,29.95,North,0,0.0,-999.0,86,-99.99,,,-99.99,,2013-03-05 18:52:00,
2013-03-05 11:11:00,36.0,30.0,29.94,North,0,0.0,-999.0,80,-99.99,,,-99.99,,2013-03-05 19:11:00,
2013-03-05 11:21:00,36.0,30.0,29.94,North,0,0.0,-999.0,80,-99.99,,,-99.99,,2013-03-05 19:21:00,
2013-03-05 11:32:00,36.0,30.0,29.94,North,0,0.0,-999.0,80,-99.99,,,-99.99,,2013-03-05 19:32:00,
2013-03-05 11:42:00,36.0,30.0,29.94,North,0,0.0,-999.0,80,-99.99,,,-99.99,,2013-03-05 19:42:00,
2013-03-05 11:51:00,36.0,30.0,29.94,North,0,0.0,-999.0,80,-99.99,,,-99.99,,2013-03-05 19:51:00,
2013-03-05 12:11:00,36.0,32.0,29.94,South,180,3.0,-999.0,86,-99.99,,,-99.99,,2013-03-05 20:11:00,
2013-03-05 12:21:00,36.0,32.0,29.94,South,180,3.0,-999.0,86,-99.99,,,-99.99,,2013-03-05 20:21:00,
2013-03-05 12:32:00,36.0,32.0,29.94,South,180,3.0,-999.0,86,-99.99,,,-99.99,,2013-03-05 20:32:00,
2013-03-05 12:41:00,36.0,32.0,29.93,North,0,0.0,-999.0,86,-99.99,,,-99.99,,2013-03-05 20:41:00,
2013-03-05 12:52:00,36.0,32.0,29.93,North,0,0.0,-999.0,86,-99.99,,,-99.99,,2013-03-05 20:52:00,
2013-03-05 13:11:00,36.0,32.0,29.93,North,0,0.0,-999.0,86,0.01,,,-99.99,,2013-03-05 21:11:00,
2013-03-05 13:21:00,36.0,32.0,29.93,North,0,0.0,-999.0,86,0.01,,,-99.99,,2013-03-05 21:21:00,
2013-03-05 13:31:00,36.0,32.0,29.93,North,0,0.0,-999.0,86,0.01,,,-99.99,,2013-03-05 21:31:00,
2013-03-05 13:41:00,36.0,34.0,29.92,North,0,0.0,-999.0,93,0.02,,,-99.99,,2013-03-05 21:41:00,
2013-03-05 13:52:00,36.0,34.0,29.92,North,0,0.0,-999.0,93,0.02,,,-99.99,,2013-03-05 21:52:00,
2013-03-05 14:11:00,36.0,34.0,29.90,South,190,3.0,-999.0,93,-99.99,,,-99.99,,2013-03-05 22:11:00,
2013-03-05 14:21:00,36.0,34.0,29.90,South,190,3.0,-999.0,93,-99.99,,,-99.99,,2013-03-05 22:21:00,
2013-03-05 14:32:00,36.0,34.0,29.90,South,190,3.0,-999.0,93,-99.99,,,-99.99,,2013-03-05 22:32:00,
2013-03-05 14:41:00,37.0,36.0,29.90,South,190,5.0,-999.0,93,-99.99,,,-99.99,,2013-03-05 22:41:00,
2013-03-05 14:52:00,37.0,36.0,29.90,South,190,5.0,-999.0,93,-99.99,,,-99.99,,2013-03-05 22:52:00,
2013-03-05 15:11:00,39.0,34.0,29.88,North,0,0.0,-999.0,80,-99.99,,,-99.99,,2013-03-05 23:11:00,
2013-03-05 15:21:00,39.0,34.0,29.88,North,0,0.0,-999.0,80,-99.99,,,-99.99,,2013-03-05 23:21:00,
2013-03-05 15:32:00,39.0,34.0,29.88,North,0,0.0,-999.0,80,-99.99,,,-99.99,,2013-03-05 23:32:00,
2013-03-05 15:41:00,39.0,36.0,29.88,North,0,0.0,-999.0,86,-99.99,,,-99.99,,2013-03-05 23:41:00,
2013-03-05 15:52:00,39.0,36.0,29.88,North,0,0.0,-999.0,86,-99.99,,,-99.99,,2013-03-05 23:52:00,
2013-03-05 16:11:00,39.0,36.0,29.87,North,0,0.0,-999.0,86,-99.99,,,-99.99,,2013-03-06 00:11:00,
2013-03-05 16:21:00,39.0,36.0,29.87,North,0,0.0,-999.0,86,-99.99,,,-99.99,,2013-03-06 00:21:00,
2013-03-05 16:32:00,39.0,36.0,29.87,North,0,0.0,-999.0,86,-99.99,,,-99.99,,2013-03-06 00:32:00,
2013-03-05 16:41:00,39.0,36.0,29.86,North,0,0.0,-999.0,86,-99.99,,,-99.99,,2013-03-06 00:41:00,
2013-03-05 16:51:00,39.0,36.0,29.86,North,0,0.0,-999.0,86,-99.99,,,-99.99,,2013-03-06 00:51:00,
2013-03-05 17:11:00,41.0,36.0,29.85,North,0,0.0,-999.0,80,-99.99,,,-99.99,,2013-03-06 01:11:00,
2013-03-05 17:21:00,41.0,36.0,29.85,North,0,0.0,-999.0,80,-99.99,,,-99.99,,2013-03-06 01:21:00,
2013-03-05 17:31:00,41.0,36.0,29.85,North,0,0.0,-999.0,80,-99.99,,,-99.99,,2013-03-06 01:31:00,
2013-03-05 17:41:00,41.0,36.0,29.85,North,0,0.0,-999.0,80,-99.99,,,-99.99,,2013-03-06 01:41:00,
2013-03-05 17:51:00,41.0,36.0,29.85,North,0,0.0,-999.0,80,-99.99,,,-99.99,,2013-03-06 01:51:00,
2013-03-05 18:11:00,39.0,36.0,29.85,North,0,0.0,-999.0,86,-99.99,,,-99.99,,2013-03-06 02:11:00,
2013-03-05 18:21:00,39.0,36.0,29.85,North,0,0.0,-999.0,86,-99.99,,,-99.99,,2013-03-06 02:21:00,
2013-03-05 18:31:00,39.0,36.0,29.85,North,0,0.0,-999.0,86,-99.99,,,-99.99,,2013-03-06 02:31:00,
2013-03-05 18:41:00,39.0,36.0,29.85,North,0,0.0,-999.0,86,-99.99,,,-99.99,,2013-03-06 02:41:00,
2013-03-05 18:52:00,39.0,36.0,29.85,North,0,0.0,-999.0,86,-99.99,,,-99.99,,2013-03-06 02:52:00,
2013-03-05 19:11:00,39.0,36.0,29.85,North,0,0.0,-999.0,86,-99.99,,,-99.99,,2013-03-06 03:11:00,
2013-03-05 19:21:00,39.0,36.0,29.85,North,0,0.0,-999.0,86,-99.99,,,-99.99,,2013-03-06 03:21:00,
2013-03-05 19:31:00,39.0,36.0,29.85,North,0,0.0,-999.0,86,-99.99,,,-99.99,,2013-03-06 03:31:00,
2013-03-05 19:41:00,39.0,36.0,29.84,North,0,0.0,-999.0,86,-99.99,,,-99.99,,2013-03-06 03:41:00,
2013-03-05 19:52:00,39.0,36.0,29.84,North,0,0.0,-999.0,86,-99.99,,,-99.99,,2013-03-06 03:52:00,
2013-03-05 20:11:00,39.0,36.0,29.83,North,350,3.0,-999.0,86,-99.99,,,-99.99,,2013-03-06 04:11:00,
2013-03-05 20:21:00,39.0,36.0,29.83,North,350,3.0,-999.0,86,-99.99,,,-99.99,,2013-03-06 04:21:00,
2013-03-05 20:32:00,39.0,36.0,29.83,North,350,3.0,-999.0,86,-99.99,,,-99.99,,2013-03-06 04:32:00,
2013-03-05 20:41:00,39.0,36.0,29.83,North,350,5.0,-999.0,86,-99.99,,,-99.99,,2013-03-06 04:41:00,
2013-03-05 20:51:00,39.0,36.0,29.83,North,350,5.0,-999.0,86,-99.99,,,-99.99,,2013-03-06 04:51:00,
2013-03-05 21:11:00,39.0,36.0,29.83,North,0,0.0,-999.0,86,-99.99,,,-99.99,,2013-03-06 05:11:00,
2013-03-05 21:22:00,39.0,36.0,29.83,North,0,0.0,-999.0,86,-99.99,,,-99.99,,2013-03-06 05:22:00,
2013-03-05 21:32:00,39.0,36.0,29.83,North,0,0.0,-999.0,86,-99.99,,,-99.99,,2013-03-06 05:32:00,
2013-03-05 21:42:00,39.0,36.0,29.83,North,0,0.0,-999.0,86,0.01,,,-99.99,,2013-03-06 05:42:00,
2013-03-05 21:52:00,39.0,36.0,29.83,North,0,0.0,-999.0,86,0.01,,,-99.99,,2013-03-06 05:52:00,
2013-03-05 22:11:00,39.0,37.0,29.82,NNW,340,3.0,-999.0,93,-99.99,,,-99.99,,2013-03-06 06:11:00,
2013-03-05 22:22:00,39.0,37.0,29.82,NNW,340,3.0,-999.0,93,-99.99,,,-99.99,,2013-03-06 06:22:00,
2013-03-05 22:31:00,39.0,37.0,29.82,NNW,340,3.0,-999.0,93,-99.99,,,-99.99,,2013-03-06 06:31:00,
2013-03-05 22:42:00,37.0,36.0,29.81,North,350,3.0,-999.0,93,-99.99,,,-99.99,,2013-03-06 06:42:00,
2013-03-05 22:52:00,37.0,36.0,29.81,North,350,3.0,-999.0,93,-99.99,,,-99.99,,2013-03-06 06:52:00,
2013-03-05 23:11:00,37.0,36.0,29.80,North,0,0.0,-999.0,93,0.01,,,-99.99,,2013-03-06 07:11:00,
2013-03-05 23:22:00,37.0,36.0,29.80,North,0,0.0,-999.0,93,0.01,,,-99.99,,2013-03-06 07:22:00,
2013-03-05 23:31:00,37.0,36.0,29.80,North,0,0.0,-999.0,93,0.01,,,-99.99,,2013-03-06 07:31:00,
2013-03-05 23:42:00,37.0,36.0,29.79,North,0,0.0,-999.0,93,0.01,,,-99.99,,2013-03-06 07:42:00,
2013-03-05 23:52:00,37.0,36.0,29.79,North,0,0.0,-999.0,93,0.01,,,-99.99,,2013-03-06 07:52:00,